Terug naar catalogus

SL-16 DEB

ActiefLEO
NORAD 24284·DEBRIS·🇷🇺 Russia

Gelanceerd Oct 31, 1995 vanaf Baikonur Cosmodrome

Loading…

Volgende Passages (komende 24 uur)

TLE

VersSource: Space-Track

Epoch: Sep 14, 2026, 13:13 UTC

1 24284U 95058G   26257.55128898  .00000307  00000-0  16531-3 0  9994
2 24284  70.8616 210.4346 0012787 346.9506  13.1286 14.20595294596437

Volg SL-16 DEB in realtime met AllMySat

Download on the App Store